N751CT EKCH-EDDM

Flight info

Callsign N751CT
Flight time 1h 17m
Altitude 39000
Route SALLO M44 KOGIM DCT MAREM/N0493F340 DCT VESUB T106 TUSTO T108 LANDU LANDU2A
Aircraft C750/M-SBDE3FGHRWXY/S

Departure

Time 2026-05-04 10:45
Airport Copenhagen Kastrup Airport (EKCH)

Arrival

Time 2026-05-04 12:02
Airport Munich Airport (EDDM)
Time Latitude Longitude Altitude Speed Heading
2026-05-04 10:12 55.62199 12.62945 20 ft 0 kts 21°
2026-05-04 10:39 55.62270 12.63328 20 ft 10 kts 88°
2026-05-04 10:39 55.62272 12.63452 20 ft 10 kts 88°
2026-05-04 10:39 55.62273 12.63571 20 ft 10 kts 89°
2026-05-04 10:40 55.62274 12.63688 20 ft 10 kts 89°
2026-05-04 10:40 55.62276 12.63822 20 ft 12 kts 91°
2026-05-04 10:40 55.62278 12.63978 20 ft 14 kts 88°
2026-05-04 10:40 55.62281 12.64167 17 ft 17 kts 89°
2026-05-04 10:41 55.62245 12.64354 19 ft 15 kts 153°
2026-05-04 10:41 55.62156 12.64308 22 ft 12 kts 204°
2026-05-04 10:41 55.62073 12.64238 20 ft 15 kts 205°
2026-05-04 10:41 55.61966 12.64149 23 ft 19 kts 205°
2026-05-04 10:42 55.61853 12.64071 20 ft 15 kts 183°
2026-05-04 10:42 55.61776 12.64079 21 ft 9 kts 175°
2026-05-04 10:42 55.61764 12.64080 21 ft 0 kts 176°
2026-05-04 10:44 55.61099 12.63251 25 ft 130 kts 221°
2026-05-04 10:45 55.60377 12.62094 440 ft 146 kts 226°
2026-05-04 10:45 55.59582 12.60832 1010 ft 162 kts 224°
2026-05-04 10:45 55.58675 12.59454 1560 ft 185 kts 222°
2026-05-04 10:45 55.57609 12.57860 2087 ft 215 kts 223°
2026-05-04 10:46 55.56376 12.56084 2602 ft 244 kts 216°
2026-05-04 10:46 55.54747 12.54954 3483 ft 252 kts 201°
2026-05-04 10:46 55.53080 12.54020 4680 ft 252 kts 202°
2026-05-04 10:46 55.51414 12.52994 5697 ft 255 kts 203°
2026-05-04 10:47 55.49732 12.51943 6750 ft 257 kts 203°
2026-05-04 10:47 55.48034 12.50911 7846 ft 259 kts 202°
2026-05-04 10:47 55.46266 12.50160 8853 ft 270 kts 188°
2026-05-04 10:47 55.44383 12.50685 9900 ft 281 kts 167°
2026-05-04 10:49 55.37630 12.77997 13785 ft 388 kts 110°
2026-05-04 10:49 55.36877 12.82577 14420 ft 392 kts 109°
2026-05-04 10:50 55.36095 12.87190 15069 ft 396 kts 110°
2026-05-04 10:51 55.23796 13.10513 19714 ft 397 kts 158°
2026-05-04 10:52 55.21358 13.12676 20390 ft 401 kts 158°
2026-05-04 10:52 55.18856 13.14890 21065 ft 405 kts 158°
2026-05-04 10:52 55.16326 13.17107 21725 ft 409 kts 158°
2026-05-04 10:54 54.97916 13.33187 25819 ft 435 kts 158°
2026-05-04 10:54 54.95196 13.35549 26346 ft 439 kts 158°
2026-05-04 10:56 54.74283 13.43291 29983 ft 452 kts 176°
2026-05-04 10:56 54.71157 13.44125 30432 ft 456 kts 175°
2026-05-04 10:56 54.68015 13.44970 30895 ft 458 kts 175°
2026-05-04 10:57 54.64873 13.45816 31551 ft 456 kts 175°
2026-05-04 10:57 54.61747 13.46651 32231 ft 453 kts 176°
2026-05-04 10:57 54.58635 13.47478 32885 ft 452 kts 176°
2026-05-04 10:57 54.55535 13.48303 33548 ft 450 kts 176°
2026-05-04 10:58 54.52441 13.49127 34186 ft 449 kts 176°
2026-05-04 10:58 54.49362 13.49942 34742 ft 448 kts 176°
2026-05-04 10:58 54.46279 13.50725 35277 ft 447 kts 176°
2026-05-04 10:58 54.43206 13.51482 35826 ft 446 kts 176°
2026-05-04 10:59 54.40140 13.52252 36362 ft 445 kts 176°
2026-05-04 10:59 54.37073 13.53037 36914 ft 444 kts 175°
2026-05-04 10:59 54.34022 13.53809 37460 ft 444 kts 175°
2026-05-04 10:59 54.30964 13.54432 37960 ft 441 kts 180°
2026-05-04 11:00 54.27911 13.54526 38467 ft 438 kts 183°
2026-05-04 11:01 54.05485 13.55052 38968 ft 488 kts 182°
2026-05-04 11:02 54.03184 13.55118 38967 ft 492 kts 182°
2026-05-04 11:05 53.51095 13.56415 38955 ft 502 kts 181°
2026-05-04 11:06 53.44065 13.56587 38950 ft 502 kts 181°
2026-05-04 11:06 53.37115 13.56759 38952 ft 503 kts 181°
2026-05-04 11:10 52.88024 13.57945 38958 ft 504 kts 182°
2026-05-04 11:12 52.59933 13.58614 38971 ft 505 kts 182°
2026-05-04 11:12 52.52910 13.58781 38961 ft 504 kts 182°
2026-05-04 11:13 52.45897 13.58945 38967 ft 504 kts 182°
2026-05-04 11:13 52.38887 13.59110 38967 ft 503 kts 182°
2026-05-04 11:14 52.37753 13.59137 38970 ft 504 kts 182°
2026-05-04 11:16 52.03906 13.59921 38982 ft 502 kts 182°
2026-05-04 11:16 51.96927 13.60082 38974 ft 502 kts 182°
2026-05-04 11:17 51.89936 13.60242 38973 ft 502 kts 182°
2026-05-04 11:19 51.62041 13.60877 38982 ft 501 kts 182°
2026-05-04 11:19 51.55110 13.61034 38984 ft 501 kts 182°
2026-05-04 11:20 51.48129 13.61191 38978 ft 501 kts 182°
2026-05-04 11:20 51.41148 13.61347 38980 ft 502 kts 182°
2026-05-04 11:22 51.13196 13.61969 38987 ft 503 kts 182°
2026-05-04 11:23 51.06203 13.62125 38989 ft 503 kts 182°
2026-05-04 11:25 50.81697 13.62662 38984 ft 503 kts 182°
2026-05-04 11:25 50.74698 13.62806 38986 ft 503 kts 182°
2026-05-04 11:26 50.67845 13.61183 38987 ft 497 kts 199°
2026-05-04 11:27 50.44905 13.49573 38991 ft 493 kts 200°
2026-05-04 11:28 50.38363 13.46401 38986 ft 492 kts 200°
2026-05-04 11:28 50.31833 13.43139 38991 ft 492 kts 200°
2026-05-04 11:29 50.25293 13.39949 38992 ft 492 kts 200°
2026-05-04 11:29 50.18760 13.36732 39000 ft 492 kts 200°
2026-05-04 11:31 49.96245 13.25776 37603 ft 448 kts 200°
2026-05-04 11:33 49.76026 13.16010 33591 ft 441 kts 200°
2026-05-04 11:33 49.73096 13.14602 33014 ft 443 kts 200°
2026-05-04 11:33 49.70148 13.13187 32428 ft 445 kts 200°
2026-05-04 11:34 49.67185 13.11768 31837 ft 447 kts 200°
2026-05-04 11:34 49.64212 13.10346 31245 ft 449 kts 200°
2026-05-04 11:34 49.61223 13.08918 30649 ft 452 kts 200°
2026-05-04 11:34 49.58221 13.07485 30046 ft 450 kts 200°
2026-05-04 11:35 49.55251 13.06072 29417 ft 444 kts 199°
2026-05-04 11:35 49.52308 13.04671 28834 ft 441 kts 199°
2026-05-04 11:35 49.49387 13.03281 28249 ft 437 kts 199°
2026-05-04 11:35 49.46489 13.01905 27668 ft 434 kts 199°
2026-05-04 11:36 49.43620 13.00545 27089 ft 430 kts 199°
2026-05-04 11:36 49.40822 12.98988 26505 ft 425 kts 206°
2026-05-04 11:36 49.38165 12.97039 25975 ft 422 kts 207°
2026-05-04 11:36 49.35539 12.95053 25420 ft 419 kts 207°
2026-05-04 11:37 49.32914 12.93137 24869 ft 416 kts 206°
2026-05-04 11:37 49.30296 12.91274 24317 ft 413 kts 206°
2026-05-04 11:37 49.27702 12.89396 23776 ft 410 kts 206°
2026-05-04 11:37 49.25138 12.87513 23193 ft 407 kts 206°
2026-05-04 11:38 49.22594 12.85660 22658 ft 403 kts 206°
2026-05-04 11:38 49.20101 12.83862 22131 ft 400 kts 206°
2026-05-04 11:38 49.17600 12.82053 21610 ft 396 kts 206°
2026-05-04 11:38 49.15123 12.80255 21082 ft 392 kts 206°
2026-05-04 11:39 49.12672 12.78478 20566 ft 389 kts 206°
2026-05-04 11:39 49.10240 12.76721 20050 ft 385 kts 206°
2026-05-04 11:40 48.96065 12.66527 17039 ft 367 kts 206°
2026-05-04 11:41 48.93770 12.64883 16558 ft 364 kts 206°
2026-05-04 11:41 48.91483 12.63243 16085 ft 362 kts 206°
2026-05-04 11:41 48.89214 12.61622 15607 ft 359 kts 206°
2026-05-04 11:41 48.86962 12.60021 15140 ft 356 kts 206°
2026-05-04 11:42 48.84724 12.58430 14683 ft 354 kts 206°
2026-05-04 11:42 48.82499 12.56848 14215 ft 351 kts 206°
2026-05-04 11:42 48.80291 12.55282 13752 ft 350 kts 206°
2026-05-04 11:42 48.78099 12.53726 13275 ft 347 kts 206°
2026-05-04 11:43 48.76030 12.51891 12716 ft 346 kts 220°
2026-05-04 11:43 48.74591 12.49015 12094 ft 343 kts 240°
2026-05-04 11:43 48.73703 12.45680 11593 ft 341 kts 250°
2026-05-04 11:43 48.72949 12.42305 11127 ft 333 kts 249°
2026-05-04 11:44 48.72150 12.39122 10653 ft 314 kts 247°
2026-05-04 11:44 48.71344 12.36128 10170 ft 301 kts 247°
2026-05-04 11:44 48.70597 12.33228 9662 ft 291 kts 248°
2026-05-04 11:44 48.69891 12.30405 9130 ft 283 kts 248°
2026-05-04 11:45 48.69188 12.27646 8606 ft 279 kts 248°
2026-05-04 11:45 48.68498 12.24964 8175 ft 275 kts 247°
2026-05-04 11:45 48.67817 12.22305 7903 ft 269 kts 248°
2026-05-04 11:45 48.67139 12.19663 7666 ft 272 kts 248°
2026-05-04 11:46 48.66443 12.16951 7436 ft 278 kts 248°
2026-05-04 11:46 48.65745 12.14239 7190 ft 275 kts 248°
2026-05-04 11:46 48.65056 12.11561 6945 ft 272 kts 248°
2026-05-04 11:46 48.64366 12.08884 6700 ft 274 kts 248°
2026-05-04 11:47 48.63676 12.06206 6466 ft 273 kts 248°
2026-05-04 11:47 48.62984 12.03531 6228 ft 272 kts 248°
2026-05-04 11:47 48.62516 12.01728 6057 ft 273 kts 247°
2026-05-04 11:47 48.61826 11.99061 5816 ft 273 kts 248°
2026-05-04 11:48 48.61137 11.96374 5549 ft 273 kts 248°
2026-05-04 11:48 48.60445 11.93705 5296 ft 273 kts 248°
2026-05-04 11:48 48.59744 11.91047 5042 ft 272 kts 248°
2026-05-04 11:48 48.59057 11.88400 4973 ft 268 kts 249°
2026-05-04 11:49 48.58376 11.85761 4976 ft 272 kts 249°
2026-05-04 11:49 48.57681 11.83092 4977 ft 273 kts 248°
2026-05-04 11:49 48.56987 11.80431 4981 ft 273 kts 248°
2026-05-04 11:49 48.56288 11.77749 4984 ft 275 kts 248°
2026-05-04 11:50 48.55591 11.75074 4979 ft 273 kts 248°
2026-05-04 11:50 48.54896 11.72404 4972 ft 273 kts 248°
2026-05-04 11:50 48.54210 11.69756 4965 ft 275 kts 248°
2026-05-04 11:50 48.53506 11.67062 4981 ft 273 kts 248°
2026-05-04 11:51 48.52812 11.64412 4988 ft 274 kts 248°
2026-05-04 11:51 48.52113 11.61740 4980 ft 273 kts 248°
2026-05-04 11:51 48.51408 11.59063 4990 ft 276 kts 248°
2026-05-04 11:51 48.50706 11.56376 4983 ft 276 kts 249°
2026-05-04 11:52 48.49993 11.53695 4965 ft 275 kts 248°
2026-05-04 11:52 48.49294 11.51036 4985 ft 274 kts 248°
2026-05-04 11:52 48.48591 11.48358 4967 ft 275 kts 248°
2026-05-04 11:52 48.47887 11.45684 4962 ft 274 kts 248°
2026-05-04 11:53 48.47181 11.43022 4970 ft 274 kts 248°
2026-05-04 11:53 48.46267 11.40546 4929 ft 269 kts 227°
2026-05-04 11:53 48.45107 11.39133 4952 ft 252 kts 214°
2026-05-04 11:53 48.43642 11.37692 4961 ft 241 kts 212°
2026-05-04 11:55 48.34166 11.33672 4885 ft 207 kts 115°
2026-05-04 11:55 48.33564 11.35667 5028 ft 213 kts 111°
2026-05-04 11:56 48.33330 11.37847 4989 ft 211 kts 91°
2026-05-04 11:56 48.33438 11.39918 4958 ft 185 kts 83°
2026-05-04 11:56 48.33588 11.41827 4962 ft 187 kts 83°
2026-05-04 11:56 48.33738 11.43784 4995 ft 190 kts 83°
2026-05-04 11:57 48.33890 11.45739 4985 ft 189 kts 83°
2026-05-04 11:57 48.34055 11.47690 4956 ft 187 kts 82°
2026-05-04 11:57 48.34191 11.49651 4966 ft 190 kts 84°
2026-05-04 11:57 48.34329 11.51633 4740 ft 190 kts 83°
2026-05-04 11:58 48.34484 11.53581 4516 ft 188 kts 82°
2026-05-04 11:58 48.34636 11.55517 4224 ft 183 kts 83°
2026-05-04 11:58 48.34778 11.57369 3980 ft 171 kts 83°
2026-05-04 11:58 48.34904 11.59067 3828 ft 159 kts 84°
2026-05-04 11:59 48.35037 11.60706 3562 ft 154 kts 82°
2026-05-04 11:59 48.35160 11.62281 3363 ft 152 kts 83°
2026-05-04 11:59 48.35281 11.63867 3189 ft 154 kts 82°
2026-05-04 11:59 48.35401 11.65422 2989 ft 144 kts 83°
2026-05-04 12:00 48.35517 11.66893 2777 ft 140 kts 83°
2026-05-04 12:00 48.35624 11.68275 2620 ft 127 kts 82°
2026-05-04 12:00 48.35720 11.69571 2481 ft 124 kts 82°
2026-05-04 12:00 48.35821 11.70884 2273 ft 127 kts 82°
2026-05-04 12:01 48.35920 11.72182 2151 ft 123 kts 81°
2026-05-04 12:01 48.36027 11.73457 1956 ft 124 kts 82°
2026-05-04 12:02 48.36453 11.79107 1476 ft 30 kts 89°
2026-05-04 12:03 48.36411 11.79396 1482 ft 27 kts 113°
2026-05-04 12:03 48.36353 11.79594 1481 ft 18 kts 114°
2026-05-04 12:03 48.36304 11.79760 1476 ft 17 kts 118°
2026-05-04 12:03 48.36213 11.79835 1479 ft 15 kts 174°
2026-05-04 12:04 48.36131 11.79801 1478 ft 12 kts 253°
2026-05-04 12:04 48.36121 11.79676 1472 ft 12 kts 263°
2026-05-04 12:04 48.36110 11.79540 1482 ft 11 kts 264°
2026-05-04 12:04 48.36063 11.79485 1482 ft 8 kts 173°
2026-05-04 12:05 48.36015 11.79493 1482 ft 8 kts 174°
2026-05-04 12:05 48.35934 11.79505 1478 ft 16 kts 176°
2026-05-04 12:05 48.35850 11.79522 1482 ft 13 kts 167°
2026-05-04 12:05 48.35823 11.79628 1482 ft 14 kts 83°
2026-05-04 12:06 48.35837 11.79806 1482 ft 18 kts 84°
2026-05-04 12:06 48.35852 11.79989 1482 ft 19 kts 83°
2026-05-04 12:06 48.35868 11.80203 1482 ft 20 kts 83°
2026-05-04 12:06 48.35881 11.80384 1482 ft 14 kts 86°
2026-05-04 12:07 48.35888 11.80473 1482 ft 4 kts 66°
2026-05-04 12:07 48.35927 11.80489 1482 ft 8 kts 355°
2026-05-04 12:07 48.35945 11.80487 1479 ft 0 kts 354°